contact:dominique.lefevre@mio.osupytheas.fr, maurice.libes@osupytheas.fr, didier.mallarino@osupytheas.fr
Project:EMSO http://www.emso-fr.org/EMSO-France
Depth: 2436.0 m
Title:EMSO Ligure Ouest : Data MII capteur AQUADOPP
Date,Latitude,Longitude,X_East,Y_North,Z_Up,Amplitude_X,Amplitude_Y,Amplitude_Z,Batterie,SoundSpeed,Heading,Pitch,Roll,Pressure,TIS,Speed,Direction
, degrees North, degrees East, m.s-1, m.s-1,m.s-1, 1, 1, 1, Volt, m.s-1, degree, degree, degree, dbar, degree_C, m.s-1, degree
2019-09-28T00:04:04,42.805,6.029,-0.005,0.012,-0.016,102.0,109.0,98.0,13.3,1505.1,328.1,-0.8,1.8,2470.542,13.27,0.013,337.4
2019-09-28T00:07:05,42.805,6.029,-0.004,0.036,-0.04,101.0,108.0,100.0,13.4,1505.2,326.9,-0.7,1.9,2470.407,13.29,0.036,353.7
2019-09-28T00:10:06,42.805,6.029,-0.028,0.013,-0.032,101.0,108.0,99.0,13.3,1505.3,326.2,-0.7,1.9,2470.209,13.31,0.03,294.9
2019-09-28T00:13:07,42.805,6.029,0.0,0.008,-0.006,102.0,109.0,98.0,13.4,1505.3,325.0,-0.7,1.8,2470.079,13.31,0.008,0.0
2019-09-28T00:16:08,42.805,6.029,0.0,0.009,0.0,101.0,110.0,99.0,13.4,1505.3,323.8,-0.7,1.9,2469.973,13.32,0.009,0.0
2019-09-28T00:19:09,42.805,6.029,-0.019,0.021,-0.027,101.0,109.0,98.0,13.4,1505.3,323.4,-0.7,1.8,2469.907,13.33,0.028,317.9
2019-09-28T00:22:10,42.805,6.029,-0.007,0.011,0.009,101.0,109.0,98.0,13.4,1505.3,323.6,-0.7,1.9,2469.856,13.33,0.013,327.5
2019-09-28T00:25:11,42.805,6.029,0.004,0.009,0.01,101.0,108.0,98.0,13.4,1505.3,323.5,-0.7,1.8,2469.805,13.33,0.009,24.0
2019-09-28T00:28:12,42.805,6.029,0.0,0.031,-0.017,100.0,109.0,97.0,13.3,1505.3,325.5,-0.7,1.8,2469.812,13.33,0.03,0.0
2019-09-28T00:31:13,42.805,6.029,-0.002,0.014,0.0,100.0,109.0,98.0,13.4,1505.3,327.0,-0.7,1.8,2469.798,13.33,0.014,351.9
2019-09-28T00:34:14,42.805,6.029,-0.015,0.017,-0.02,100.0,109.0,98.0,13.4,1505.3,326.6,-0.7,1.9,2469.759,13.33,0.022,318.6
2019-09-28T00:37:15,42.805,6.029,-0.014,0.009,-0.01,102.0,109.0,97.0,13.4,1505.4,326.8,-0.7,1.8,2469.777,13.34,0.016,302.7
2019-09-28T00:40:16,42.805,6.029,-0.017,0.021,-0.039,102.0,109.0,97.0,13.4,1505.4,325.1,-0.7,1.8,2469.766,13.34,0.027,321.0
2019-09-28T00:43:17,42.805,6.029,0.012,0.002,0.007,100.0,109.0,99.0,13.4,1505.4,324.1,-0.7,1.8,2469.81,13.34,0.012,80.5
2019-09-28T00:46:18,42.805,6.029,-0.026,0.012,0.001,100.0,108.0,98.0,13.4,1505.4,324.5,-0.7,1.8,2469.827,13.34,0.028,294.8
2019-09-28T00:49:19,42.805,6.029,0.008,0.027,0.004,100.0,109.0,99.0,13.4,1505.4,324.0,-0.7,1.8,2469.795,13.34,0.028,16.5
2019-09-28T00:52:20,42.805,6.029,0.019,0.004,0.002,101.0,108.0,98.0,13.4,1505.4,324.7,-0.7,1.9,2469.811,13.34,0.019,78.1
2019-09-28T00:55:21,42.805,6.029,0.0,0.017,-0.031,100.0,109.0,98.0,13.4,1505.4,324.8,-0.7,1.8,2469.819,13.34,0.017,0.0
2019-09-28T00:58:22,42.805,6.029,-0.008,0.002,-0.02,101.0,108.0,98.0,13.3,1505.4,324.9,-0.7,1.8,2469.786,13.34,0.008,284.0
2019-09-28T01:01:23,42.805,6.029,-0.011,0.006,-0.002,101.0,109.0,99.0,13.3,1505.4,327.3,-0.7,1.9,2469.798,13.34,0.012,298.6
2019-09-28T01:04:24,42.805,6.029,0.016,0.009,-0.048,101.0,109.0,98.0,13.3,1505.4,323.8,-0.7,1.9,2469.825,13.34,0.018,60.6
2019-09-28T01:07:25,42.805,6.029,-0.014,0.004,0.001,101.0,109.0,99.0,13.3,1505.4,323.8,-0.7,1.8,2469.827,13.34,0.014,285.9
2019-09-28T01:10:26,42.805,6.029,-0.005,0.024,-0.056,102.0,109.0,98.0,13.3,1505.4,328.5,-0.7,1.8,2469.834,13.34,0.024,348.2
2019-09-28T01:13:27,42.805,6.029,-0.014,0.018,-0.037,101.0,109.0,98.0,13.4,1505.4,328.0,-0.7,1.8,2469.852,13.34,0.022,322.1
2019-09-28T01:16:28,42.805,6.029,-0.019,-0.008,-0.06,101.0,108.0,99.0,13.3,1505.4,327.5,-0.7,1.8,2469.873,13.34,0.02,247.2
2019-09-28T01:19:29,42.805,6.029,-0.022,0.007,0.002,102.0,109.0,98.0,13.3,1505.4,327.0,-0.7,1.8,2469.805,13.34,0.023,287.6
2019-09-28T01:22:30,42.805,6.029,-0.018,0.041,-0.029,102.0,109.0,99.0,13.3,1505.4,324.5,-0.7,1.8,2469.845,13.34,0.044,336.3
2019-09-28T01:25:31,42.805,6.029,-0.002,0.022,-0.026,102.0,109.0,98.0,13.4,1505.4,324.4,-0.7,1.8,2469.848,13.34,0.022,354.8
2019-09-28T01:28:32,42.805,6.029,0.011,0.01,0.013,101.0,108.0,98.0,13.4,1505.4,325.4,-0.7,1.8,2469.824,13.34,0.014,47.7
2019-09-28T01:31:33,42.805,6.029,-0.009,0.011,0.018,101.0,109.0,99.0,13.3,1505.4,325.3,-0.7,1.9,2469.857,13.34,0.014,320.7
2019-09-28T01:34:34,42.805,6.029,0.004,0.027,-0.018,101.0,109.0,98.0,13.4,1505.4,325.5,-0.7,1.8,2469.844,13.34,0.027,8.4
2019-09-28T01:37:35,42.805,6.029,-0.007,0.023,-0.037,101.0,109.0,98.0,13.3,1505.4,324.5,-0.7,1.9,2469.827,13.34,0.024,343.1
2019-09-28T01:40:36,42.805,6.029,-0.021,0.013,-0.012,101.0,109.0,98.0,13.4,1505.4,325.1,-0.7,1.9,2469.851,13.34,0.024,301.8
2019-09-28T01:43:37,42.805,6.029,0.03,0.02,0.007,102.0,109.0,99.0,13.3,1505.4,326.8,-0.7,1.8,2469.883,13.34,0.036,56.3
2019-09-28T01:46:38,42.805,6.029,-0.021,-0.001,-0.031,102.0,110.0,98.0,13.4,1505.4,325.3,-0.7,1.8,2469.85,13.34,0.021,267.3
2019-09-28T01:49:39,42.805,6.029,0.023,0.029,-0.008,101.0,108.0,98.0,13.3,1505.4,327.4,-0.7,1.8,2469.879,13.34,0.037,38.4
2019-09-28T01:52:40,42.805,6.029,-0.037,0.017,-0.033,101.0,109.0,98.0,13.4,1505.4,326.3,-0.8,1.8,2469.881,13.34,0.04,294.7
2019-09-28T01:55:41,42.805,6.029,0.015,0.023,0.02,101.0,108.0,98.0,13.4,1505.4,326.6,-0.8,1.8,2469.871,13.34,0.027,33.1
2019-09-28T01:58:42,42.805,6.029,-0.02,0.009,-0.035,101.0,109.0,98.0,13.4,1505.4,326.2,-0.7,1.8,2469.895,13.34,0.021,294.2
2019-09-28T02:01:43,42.805,6.029,-0.01,0.0,-0.007,101.0,109.0,97.0,13.3,1505.4,325.3,-0.7,1.8,2469.921,13.34,0.01,270.0
2019-09-28T02:04:44,42.805,6.029,0.007,0.015,-0.008,99.0,111.0,99.0,13.3,1505.4,323.4,-0.7,1.8,2469.882,13.34,0.016,25.0
2019-09-28T02:07:45,42.805,6.029,-0.002,0.026,-0.002,101.0,108.0,100.0,13.3,1505.4,324.7,-0.7,1.8,2469.812,13.34,0.026,355.6
2019-09-28T02:10:46,42.805,6.029,-0.011,0.023,-0.002,100.0,109.0,98.0,13.4,1505.4,324.0,-0.7,1.9,2469.896,13.34,0.025,334.4
2019-09-28T02:13:47,42.805,6.029,-0.023,0.026,-0.02,102.0,109.0,96.0,13.3,1505.4,326.2,-0.7,1.8,2469.851,13.34,0.034,318.5
2019-09-28T02:16:48,42.805,6.029,-0.024,0.027,-0.024,100.0,109.0,98.0,13.4,1505.4,324.3,-0.7,1.8,2469.89,13.34,0.036,318.4
2019-09-28T02:19:49,42.805,6.029,-0.018,0.032,-0.011,100.0,108.0,99.0,13.4,1505.4,327.1,-0.7,1.8,2469.877,13.34,0.036,330.6
2019-09-28T02:22:50,42.805,6.029,-0.003,0.018,-0.011,100.0,109.0,99.0,13.4,1505.4,323.8,-0.7,1.8,2469.856,13.34,0.018,350.5
2019-09-28T02:25:51,42.805,6.029,-0.024,0.004,-0.06,100.0,109.0,98.0,13.4,1505.4,323.1,-0.7,1.8,2469.882,13.34,0.024,279.5
2019-09-28T02:28:52,42.805,6.029,-0.023,0.027,-0.007,100.0,109.0,98.0,13.3,1505.4,324.7,-0.7,1.8,2469.91,13.34,0.035,319.6
2019-09-28T02:31:53,42.805,6.029,-0.009,0.008,-0.048,102.0,109.0,98.0,13.3,1505.4,327.2,-0.7,1.9,2469.899,13.34,0.012,311.6
2019-09-28T02:34:54,42.805,6.029,-0.019,0.027,-0.028,102.0,110.0,97.0,13.4,1505.3,324.5,-0.7,1.8,2469.898,13.33,0.033,324.9
2019-09-28T02:37:55,42.805,6.029,-0.015,0.011,-0.017,100.0,109.0,98.0,13.3,1505.3,327.1,-0.7,1.8,2469.957,13.33,0.018,306.3
2019-09-28T02:40:56,42.805,6.029,-0.008,-0.002,-0.015,102.0,109.0,97.0,13.3,1505.4,323.0,-0.7,1.8,2469.92,13.34,0.008,256.0
2019-09-28T02:43:57,42.805,6.029,0.006,-0.004,-0.021,100.0,109.0,98.0,13.4,1505.4,326.7,-0.7,1.8,2469.947,13.34,0.007,123.7
2019-09-28T02:46:58,42.805,6.029,-0.033,0.019,0.006,100.0,108.0,98.0,13.3,1505.4,326.6,-0.7,1.9,2469.94,13.34,0.038,299.9
2019-09-28T02:49:59,42.805,6.029,0.012,0.019,-0.01,101.0,107.0,98.0,13.4,1505.4,327.2,-0.7,1.9,2469.892,13.34,0.022,32.3
2019-09-28T02:53:00,42.805,6.029,-0.019,0.015,-0.012,101.0,108.0,98.0,13.4,1505.4,325.2,-0.7,1.8,2469.913,13.34,0.024,308.3
2019-09-28T02:56:01,42.805,6.029,-0.022,0.024,-0.02,102.0,109.0,98.0,13.3,1505.4,328.1,-0.7,1.8,2469.924,13.34,0.032,317.5
2019-09-28T02:59:02,42.805,6.029,-0.028,0.019,0.022,100.0,109.0,98.0,13.4,1505.4,328.7,-0.7,1.8,2469.929,13.34,0.033,304.2
2019-09-28T03:02:03,42.805,6.029,-0.015,0.007,-0.005,101.0,109.0,98.0,13.3,1505.4,326.0,-0.7,1.8,2469.963,13.34,0.016,295.0
2019-09-28T03:05:04,42.805,6.029,-0.03,0.011,-0.033,100.0,108.0,98.0,13.4,1505.4,327.9,-0.7,1.8,2469.969,13.34,0.031,290.1
2019-09-28T03:08:05,42.805,6.029,-0.005,0.016,0.031,103.0,109.0,99.0,13.4,1505.4,327.7,-0.7,1.8,2469.963,13.34,0.016,342.6
2019-09-28T03:11:06,42.805,6.029,-0.027,0.027,-0.05,101.0,110.0,99.0,13.4,1505.4,325.4,-0.7,1.8,2469.955,13.34,0.038,315.0
2019-09-28T03:14:07,42.805,6.029,-0.004,0.012,0.04,101.0,110.0,98.0,13.3,1505.4,328.0,-0.7,1.9,2469.912,13.34,0.012,341.6
2019-09-28T03:17:08,42.805,6.029,-0.009,0.027,0.033,101.0,110.0,98.0,13.4,1505.4,325.5,-0.7,1.8,2469.97,13.34,0.028,341.6
2019-09-28T03:20:09,42.805,6.029,0.017,0.001,-0.028,101.0,108.0,99.0,13.3,1505.4,327.0,-0.7,1.8,2469.958,13.34,0.017,86.6
2019-09-28T03:23:10,42.805,6.029,-0.001,0.005,-0.003,100.0,108.0,99.0,13.4,1505.4,324.9,-0.7,1.9,2469.97,13.34,0.005,348.7
2019-09-28T03:26:11,42.805,6.029,-0.033,0.012,-0.014,98.0,110.0,98.0,13.4,1505.4,328.4,-0.7,1.8,2469.97,13.34,0.035,290.0
2019-09-28T03:29:12,42.805,6.029,-0.009,0.018,-0.018,101.0,108.0,99.0,13.4,1505.4,328.3,-0.7,1.8,2469.948,13.34,0.02,333.4
2019-09-28T03:32:13,42.805,6.029,-0.019,0.02,-0.045,100.0,109.0,99.0,13.4,1505.4,328.0,-0.7,1.8,2469.989,13.34,0.027,316.5
2019-09-28T03:35:14,42.805,6.029,0.013,0.006,-0.019,101.0,108.0,98.0,13.4,1505.4,325.2,-0.7,1.8,2469.979,13.34,0.014,65.2
2019-09-28T03:38:15,42.805,6.029,-0.034,0.009,-0.01,101.0,108.0,98.0,13.3,1505.4,324.8,-0.7,1.8,2469.952,13.34,0.035,284.8
2019-09-28T03:41:16,42.805,6.029,-0.033,0.024,-0.019,101.0,107.0,98.0,13.4,1505.4,325.1,-0.7,1.8,2469.999,13.34,0.04,306.0
2019-09-28T03:44:17,42.805,6.029,0.003,0.018,-0.01,100.0,108.0,99.0,13.4,1505.4,325.1,-0.7,1.8,2469.968,13.34,0.018,9.5
2019-09-28T03:47:18,42.805,6.029,-0.008,0.023,-0.037,100.0,109.0,99.0,13.3,1505.4,324.9,-0.7,1.8,2470.001,13.34,0.024,340.8
2019-09-28T03:50:19,42.805,6.029,-0.034,0.008,-0.036,100.0,108.0,98.0,13.4,1505.4,324.8,-0.7,1.8,2470.009,13.34,0.034,283.2
2019-09-28T03:53:20,42.805,6.029,0.003,0.015,0.0,100.0,107.0,98.0,13.3,1505.4,326.5,-0.7,1.8,2469.983,13.34,0.015,11.3
2019-09-28T03:56:21,42.805,6.029,-0.007,0.021,-0.037,99.0,109.0,99.0,13.4,1505.4,327.0,-0.7,1.8,2470.052,13.34,0.022,341.6
2019-09-28T03:59:22,42.805,6.029,-0.053,-0.008,-0.028,101.0,108.0,98.0,13.4,1505.4,323.7,-0.7,1.8,2470.005,13.34,0.053,261.4
2019-09-28T04:02:23,42.805,6.029,-0.016,0.006,-0.045,101.0,108.0,98.0,13.4,1505.4,323.4,-0.7,1.8,2469.982,13.34,0.017,290.6
2019-09-28T04:05:24,42.805,6.029,-0.002,0.012,-0.027,101.0,108.0,98.0,13.3,1505.4,324.0,-0.7,1.9,2470.021,13.34,0.012,350.5
2019-09-28T04:08:25,42.805,6.029,0.0,0.009,-0.034,101.0,108.0,97.0,13.4,1505.4,324.1,-0.7,1.8,2470.016,13.34,0.009,0.0
2019-09-28T04:11:26,42.805,6.029,0.0,0.011,0.002,101.0,108.0,98.0,13.4,1505.4,323.8,-0.7,1.8,2470.01,13.34,0.011,0.0
2019-09-28T04:14:27,42.805,6.029,-0.016,0.002,-0.018,101.0,107.0,98.0,13.4,1505.4,324.1,-0.7,1.8,2470.019,13.34,0.016,277.1
2019-09-28T04:17:28,42.805,6.029,-0.022,0.004,-0.016,101.0,108.0,97.0,13.4,1505.4,324.4,-0.7,1.8,2470.038,13.34,0.022,280.3
2019-09-28T04:20:29,42.805,6.029,0.025,0.029,-0.034,100.0,109.0,98.0,13.3,1505.4,326.2,-0.7,1.8,2470.034,13.34,0.038,40.8
2019-09-28T04:23:30,42.805,6.029,-0.028,0.0,-0.036,101.0,108.0,98.0,13.4,1505.4,328.8,-0.7,1.8,2470.074,13.34,0.028,270.0
2019-09-28T04:26:31,42.805,6.029,-0.009,0.035,-0.018,100.0,108.0,99.0,13.4,1505.4,327.4,-0.7,1.9,2470.07,13.34,0.036,345.6
2019-09-28T04:29:32,42.805,6.029,0.021,0.021,-0.024,100.0,108.0,98.0,13.4,1505.4,324.7,-0.7,1.8,2470.054,13.34,0.029,45.0
2019-09-28T04:32:33,42.805,6.029,-0.033,0.014,-0.042,101.0,108.0,98.0,13.4,1505.4,324.9,-0.7,1.8,2470.058,13.34,0.035,293.0
2019-09-28T04:35:34,42.805,6.029,-0.012,0.026,0.004,102.0,108.0,98.0,13.4,1505.4,323.7,-0.7,1.8,2470.03,13.34,0.028,335.2
2019-09-28T04:38:35,42.805,6.029,0.0,0.006,0.009,102.0,107.0,97.0,13.4,1505.4,326.6,-0.7,1.9,2470.07,13.34,0.006,0.0
2019-09-28T04:41:36,42.805,6.029,0.007,-0.003,-0.026,99.0,108.0,99.0,13.4,1505.4,326.9,-0.7,1.8,2470.069,13.34,0.007,113.2
2019-09-28T04:44:37,42.805,6.029,-0.003,0.024,-0.025,102.0,106.0,98.0,13.4,1505.4,323.9,-0.7,1.8,2470.076,13.34,0.024,352.9
2019-09-28T04:47:38,42.805,6.029,-0.027,0.023,-0.025,101.0,108.0,98.0,13.4,1505.4,328.1,-0.7,1.8,2470.091,13.34,0.035,310.4
2019-09-28T04:50:39,42.805,6.029,-0.003,0.016,0.003,100.0,108.0,98.0,13.4,1505.4,325.3,-0.7,1.9,2470.058,13.34,0.016,349.4
2019-09-28T04:53:40,42.805,6.029,-0.017,0.01,-0.027,102.0,108.0,100.0,13.3,1505.4,327.4,-0.7,1.8,2470.054,13.34,0.019,300.5
2019-09-28T04:56:41,42.805,6.029,-0.023,0.019,-0.003,101.0,109.0,98.0,13.3,1505.4,326.8,-0.7,1.8,2470.094,13.34,0.029,309.6
2019-09-28T04:59:42,42.805,6.029,-0.029,-0.007,-0.025,100.0,108.0,98.0,13.4,1505.4,323.9,-0.7,1.8,2470.07,13.34,0.029,256.4
2019-09-28T05:02:43,42.805,6.029,0.001,0.0,-0.032,100.0,107.0,97.0,13.3,1505.4,327.0,-0.7,1.8,2470.082,13.34,0.001,90.0
2019-09-28T05:05:44,42.805,6.029,0.013,0.012,0.012,100.0,108.0,98.0,13.3,1505.4,328.2,-0.7,1.9,2470.11,13.34,0.017,47.3
2019-09-28T05:08:45,42.805,6.029,-0.009,0.016,-0.024,100.0,108.0,98.0,13.4,1505.4,327.8,-0.7,1.8,2470.081,13.34,0.018,330.6
2019-09-28T05:11:46,42.805,6.029,0.005,0.017,-0.019,102.0,107.0,98.0,13.4,1505.4,327.1,-0.7,1.8,2470.135,13.34,0.017,16.4
2019-09-28T05:14:47,42.805,6.029,0.004,0.037,-0.001,101.0,107.0,100.0,13.4,1505.4,326.4,-0.7,1.9,2470.098,13.34,0.037,6.2
2019-09-28T05:17:48,42.805,6.029,-0.004,0.03,-0.021,101.0,108.0,98.0,13.4,1505.4,326.1,-0.7,1.9,2470.098,13.34,0.03,352.4
2019-09-28T05:20:49,42.805,6.029,-0.028,0.008,-0.035,100.0,109.0,97.0,13.4,1505.4,325.1,-0.7,1.8,2470.136,13.34,0.029,285.9
2019-09-28T05:23:50,42.805,6.029,-0.013,-0.004,-0.03,101.0,109.0,97.0,13.4,1505.4,325.1,-0.7,1.8,2470.136,13.34,0.013,252.9
2019-09-28T05:26:51,42.805,6.029,-0.017,0.011,-0.034,102.0,106.0,99.0,13.4,1505.4,322.7,-0.7,1.8,2470.115,13.34,0.02,302.9
2019-09-28T05:29:52,42.805,6.029,-0.005,0.011,-0.01,102.0,107.0,99.0,13.4,1505.4,325.7,-0.7,1.8,2470.113,13.34,0.012,335.6
2019-09-28T05:32:53,42.805,6.029,-0.015,0.017,-0.037,101.0,108.0,98.0,13.4,1505.4,326.7,-0.7,1.8,2470.106,13.34,0.022,318.6
2019-09-28T05:35:54,42.805,6.029,0.01,-0.001,-0.016,101.0,108.0,97.0,13.4,1505.4,325.7,-0.7,1.8,2470.129,13.34,0.01,95.7
2019-09-28T05:38:55,42.805,6.029,-0.015,0.023,-0.008,101.0,107.0,98.0,13.4,1505.4,325.1,-0.7,1.8,2470.1,13.34,0.027,326.9
2019-09-28T05:41:56,42.805,6.029,-0.018,0.018,-0.047,101.0,107.0,97.0,13.4,1505.4,325.1,-0.7,1.8,2470.122,13.34,0.025,315.0
2019-09-28T05:44:57,42.805,6.029,0.003,0.034,-0.024,101.0,108.0,98.0,13.3,1505.4,324.3,-0.7,1.8,2470.117,13.34,0.034,5.0
2019-09-28T05:47:58,42.805,6.029,-0.002,0.03,-0.006,102.0,108.0,96.0,13.4,1505.4,327.6,-0.7,1.9,2470.092,13.34,0.03,356.2
2019-09-28T05:50:59,42.805,6.029,-0.003,0.009,-0.04,100.0,108.0,97.0,13.3,1505.4,328.5,-0.7,1.8,2470.165,13.34,0.009,341.6
2019-09-28T05:54:00,42.805,6.029,-0.015,-0.009,-0.019,102.0,108.0,97.0,13.4,1505.4,325.4,-0.7,1.8,2470.123,13.34,0.017,239.0
2019-09-28T05:57:01,42.805,6.029,-0.007,0.016,-0.036,100.0,107.0,99.0,13.3,1505.4,326.3,-0.7,1.8,2470.167,13.34,0.017,336.4
2019-09-28T06:00:02,42.805,6.029,0.003,0.018,-0.004,100.0,107.0,99.0,13.3,1505.4,323.5,-0.7,1.8,2470.118,13.34,0.018,9.5
2019-09-28T06:03:03,42.805,6.029,-0.009,0.019,-0.038,100.0,109.0,98.0,13.3,1505.4,326.1,-0.7,1.9,2470.113,13.34,0.021,334.7
2019-09-28T06:06:04,42.805,6.029,-0.004,0.003,-0.037,100.0,108.0,98.0,13.4,1505.4,324.3,-0.7,1.8,2470.138,13.34,0.005,306.9
2019-09-28T06:09:05,42.805,6.029,-0.032,0.028,-0.002,101.0,107.0,99.0,13.4,1505.4,324.1,-0.7,1.8,2470.111,13.34,0.042,311.2
2019-09-28T06:12:06,42.805,6.029,-0.005,0.014,-0.001,101.0,107.0,99.0,13.4,1505.4,324.0,-0.8,1.8,2470.102,13.34,0.014,340.4
2019-09-28T06:15:07,42.805,6.029,-0.012,0.006,-0.027,101.0,107.0,98.0,13.4,1505.4,325.9,-0.7,1.8,2470.111,13.34,0.013,296.6
2019-09-28T06:18:08,42.805,6.029,-0.021,0.005,-0.038,100.0,108.0,99.0,13.4,1505.4,324.6,-0.7,1.8,2470.162,13.34,0.021,283.4
2019-09-28T06:21:09,42.805,6.029,-0.013,0.022,0.012,100.0,107.0,99.0,13.3,1505.4,327.0,-0.7,1.8,2470.178,13.34,0.025,329.4
2019-09-28T06:24:10,42.805,6.029,0.01,0.019,-0.027,101.0,108.0,99.0,13.3,1505.4,325.9,-0.7,1.8,2470.156,13.34,0.021,27.8
2019-09-28T06:27:11,42.805,6.029,0.005,0.027,-0.017,102.0,107.0,97.0,13.4,1505.4,325.6,-0.7,1.8,2470.103,13.34,0.027,10.5
2019-09-28T06:30:12,42.805,6.029,-0.009,0.017,-0.017,101.0,109.0,97.0,13.3,1505.4,323.0,-0.7,1.8,2470.156,13.34,0.019,332.1
2019-09-28T06:33:13,42.805,6.029,0.006,0.004,-0.026,101.0,109.0,97.0,13.4,1505.4,327.2,-0.7,1.8,2470.136,13.34,0.007,56.3
2019-09-28T06:36:14,42.805,6.029,-0.002,0.007,-0.007,102.0,108.0,98.0,13.4,1505.4,328.4,-0.7,1.8,2470.116,13.35,0.007,344.1
2019-09-28T06:39:15,42.805,6.029,-0.012,0.007,-0.052,101.0,107.0,98.0,13.4,1505.4,328.1,-0.7,1.9,2470.153,13.34,0.013,300.3
2019-09-28T06:42:16,42.805,6.029,0.027,0.003,-0.001,101.0,108.0,98.0,13.4,1505.4,327.7,-0.7,1.8,2470.139,13.34,0.027,83.7
2019-09-28T06:45:17,42.805,6.029,-0.003,0.019,-0.005,100.0,110.0,98.0,13.4,1505.4,326.8,-0.7,1.8,2470.185,13.34,0.019,351.0
2019-09-28T06:48:18,42.805,6.029,-0.012,0.014,-0.039,103.0,108.0,97.0,13.3,1505.4,325.7,-0.7,1.8,2470.14,13.34,0.018,319.4
2019-09-28T06:51:19,42.805,6.029,-0.011,0.004,-0.059,101.0,106.0,98.0,13.3,1505.4,328.1,-0.7,1.8,2470.106,13.34,0.011,290.0
2019-09-28T06:54:20,42.805,6.029,-0.031,0.01,-0.038,101.0,106.0,96.0,13.4,1505.4,325.6,-0.8,1.8,2470.126,13.34,0.032,287.9
2019-09-28T06:57:21,42.805,6.029,-0.029,0.006,-0.034,100.0,107.0,98.0,13.3,1505.4,324.4,-0.7,1.8,2470.164,13.34,0.029,281.7
2019-09-28T07:00:22,42.805,6.029,-0.019,0.006,-0.003,99.0,107.0,98.0,13.3,1505.4,325.6,-0.7,1.8,2470.135,13.34,0.019,287.5
2019-09-28T07:03:23,42.805,6.029,-0.016,0.001,-0.075,101.0,107.0,99.0,13.4,1505.4,326.3,-0.7,1.9,2470.116,13.35,0.016,273.6
2019-09-28T07:06:24,42.805,6.029,-0.008,-0.001,-0.038,100.0,109.0,98.0,13.4,1505.4,326.3,-0.7,1.8,2470.161,13.34,0.008,262.9
2019-09-28T07:09:25,42.805,6.029,-0.008,0.027,-0.027,100.0,107.0,99.0,13.4,1505.4,327.8,-0.7,1.8,2470.132,13.34,0.028,343.5
